Location: Boissi�res
(45.2500°N, 2.3667°E)
Time: 21:27:42
(UTC+00:00)

Cosmos 1271 Rocket - Pass Details

Date: 03 March 2021
Orbit: 498 x 544 km, 81.2° (Epoch: 17 April)

Event Time Altitude Azimuth Distance (km) Brightness Sun altitude
Rises 18:29:22 0° 343° (NNW) 2,601 6.5 -9.4°
Reaches altitude 10° 18:31:32 10° 337° (NNW) 1,713 5.7 -9.8°
Maximum altitude 18:35:08 45° 264° (W) 691 3.9 -10.4°
Drops below altitude 10° 18:38:43 10° 191° (S) 1,709 5.5 -11.0°
Sets 18:40:53 0° 185° (S) 2,594 6.3 -11.4°
